Location: Lanoux
(43.1180°N, 1.4255°E)
Time: 04:20:19
(UTC+00:00)

CUBESAT XI-V - Visible Passes

Search period start: 21 April 2026 00:00
Search period end: 01 May 2026 00:00
Orbit: 643 x 663 km, 98.3° (Epoch: 20 April)

Date Brightness Start Highest point End Pass type
(mag) Time Alt. Az. Time Alt. Az. Time Alt. Az.
21 Apr ? 03:02:22 17° SSE 03:05:48 85° ENE 03:10:17 10° NNW visible
22 Apr ? 01:54:01 10° ESE 01:56:58 18° ENE 01:59:55 10° NNE visible
22 Apr ? 03:29:57 16° S 03:33:18 49° W 03:37:39 10° NNW visible
23 Apr ? 02:20:17 10° SE 02:24:11 31° ENE 02:28:08 10° N visible
23 Apr ? 03:57:32 12° SSW 04:00:55 26° W 04:04:39 10° NW visible
24 Apr ? 02:47:17 11° SSE 02:51:31 59° ENE 02:55:56 10° N visible
24 Apr ? 04:26:24 10° WSW 04:28:38 14° W 04:30:53 10° WNW visible
25 Apr ? 01:40:48 10° E 01:42:49 13° ENE 01:44:51 10° NNE visible
25 Apr ? 03:14:53 12° S 03:18:57 71° WSW 03:23:26 10° NNW visible
26 Apr ? 02:06:30 10° ESE 02:09:59 23° ENE 02:13:30 10° NNE visible
26 Apr ? 03:42:28 10° SSW 03:46:31 36° W 03:50:39 10° NNW visible
27 Apr ? 02:33:05 10° SE 02:37:15 41° ENE 02:41:28 10° N visible
27 Apr ? 04:10:58 10° SW 04:14:10 19° W 04:17:24 10° NW visible
28 Apr ? 03:00:12 10° SSE 03:04:38 81° ENE 03:09:07 10° N visible
29 Apr ? 01:52:57 10° ESE 01:55:48 17° ENE 01:58:40 10° NNE visible
29 Apr ? 03:27:47 10° S 03:32:07 52° W 03:36:30 10° NNW visible
30 Apr ? 02:19:09 10° SE 02:23:01 30° ENE 02:26:54 10° N visible
30 Apr ? 03:55:56 10° SSW 03:59:42 27° W 04:03:32 10° NW visible
